sampling_time,wmo_synop_id,msc_id,stn_nam,stn_elev,lat,long,stn_typ,date_tm,rpt_typ,result_time,crnt_buoy_lat,crnt_buoy_lat_qa_summary,crnt_buoy_long,crnt_buoy_long_qa_summary,avg_air_temp_pst10mts,avg_air_temp_pst10mts_qa_summary,avg_sea_sfc_temp_pst10mts,avg_sea_sfc_temp_pst10mts_qa_summary,avg_batry_volt_pst10mts,avg_batry_volt_pst10mts_qa_summary,avg_solr_panl_crnt_pst10mts,avg_solr_panl_crnt_pst10mts_qa_summary,avg_wtr_lvl_snsr_volt_pst10mts,avg_wtr_lvl_snsr_volt_pst10mts_qa_summary,avg_wave_hgt_pst20mts,avg_wave_hgt_pst20mts_qa_summary,pk_wave_hgt_pst20mts,pk_wave_hgt_pst20mts_qa_summary,sig_wave_pd_pst20mts,sig_wave_pd_pst20mts_qa_summary,sig_wave_hgt_pst20mts,sig_wave_hgt_pst20mts_qa_summary,avg_max_wave_hgt_pst20mts,avg_max_wave_hgt_pst20mts_qa_summary,avg_max_wave_pd_pst20mts,avg_max_wave_pd_pst20mts_qa_summary,avg_wave_pd_pst20mts,avg_wave_pd_pst20mts_qa_summary,pk_wave_pd_pst20mts,pk_wave_pd_pst20mts_qa_summary,avg_stn_pres_pst10mts,avg_stn_pres_pst10mts_qa_summary,avg_wnd_spd_pst10mts,avg_wnd_spd_pst10mts_qa_summary,avg_wnd_dir_pst10mts,avg_wnd_dir_pst10mts_qa_summary,max_avg_wnd_spd_pst10mts,max_avg_wnd_spd_pst10mts_qa_summary,wnd_snsr_vert_disp,wnd_snsr_vert_disp_qa_summary,pres_tend_amt_pst3hrs,pres_tend_amt_pst3hrs_data_flag,pres_tend_char_pst3hrs,pres_tend_char_pst3hrs_data_flag,avg_mslp_pst10mts,avg_mslp_pst10mts_data_flag,avg_stn_pres_pst10mts_1,avg_stn_pres_pst10mts_1_qa_summary,avg_stn_pres_pst10mts_2,avg_stn_pres_pst10mts_2_qa_summary,avg_wnd_spd_pst10mts_1,avg_wnd_spd_pst10mts_1_qa_summary,avg_wnd_spd_pst10mts_2,avg_wnd_spd_pst10mts_2_qa_summary,avg_wnd_dir_pst10mts_1,avg_wnd_dir_pst10mts_1_qa_summary,avg_wnd_dir_pst10mts_2,avg_wnd_dir_pst10mts_2_qa_summary,max_avg_wnd_spd_pst10mts_1,max_avg_wnd_spd_pst10mts_1_qa_summary,max_avg_wnd_spd_pst10mts_2,max_avg_wnd_spd_pst10mts_2_qa_summary
2023-10-14T00:00:00Z,44489,9302001,WEST CHEDABUCTO BAY,0,45.48687,-61.14100000000001,18,2023-10-14T00:00:00.000Z,108,2023-10-14T00:03:01.604Z,45.48702,100,-61.141169999999995,100,12.0,100,15.2,100,12.4,100,0.0,100,3.5,100,0.2,100,0.4,100,3.7,100,0.2,100,0.3,100,4.2,100,2.9,100,8.7,100,999.2,100,19.4,100,354,100,22.7,100,5,100,-2.2,1,6,1,999.2,1,999.2,100,999.2,100,19.4,100,18.7,100,354,100,349,100,22.7,100,22.0,100
2023-10-14T00:10:00Z,44489,9302001,WEST CHEDABUCTO BAY,0,45.48687,-61.14100000000001,18,2023-10-14T00:10:00.000Z,110,2023-10-14T00:13:13.406Z,45.48702,100,-61.14115,100,12.6,100,15.8,100,12.4,100,0.0,100,3.5,100,,-1,,-1,,-1,,-1,,-1,,-1,,-1,,-1,999.2,100,20.9,100,353,100,24.8,100,5,100,-2.2,1,6,1,999.2,1,999.2,100,999.1,100,20.9,100,20.5,100,353,100,348,100,24.8,100,24.5,100
2023-10-14T00:20:00Z,44489,9302001,WEST CHEDABUCTO BAY,0,45.48687,-61.14100000000001,18,2023-10-14T00:20:00.000Z,110,2023-10-14T00:23:06.358Z,45.48702,100,-61.14115,100,12.1,100,15.2,100,12.4,100,0.0,100,3.5,100,,-1,,-1,,-1,,-1,,-1,,-1,,-1,,-1,999.2,100,21.2,100,349,100,25.2,100,5,100,-2.1,1,6,1,999.2,1,999.2,100,999.1,100,21.2,100,20.5,100,349,100,344,100,25.2,100,25.2,100
2023-10-14T00:30:00Z,44489,9302001,WEST CHEDABUCTO BAY,0,45.48687,-61.14100000000001,18,2023-10-14T00:30:00.000Z,110,2023-10-14T00:33:09.293Z,45.48702,100,-61.14117,100,12.1,100,15.2,100,12.4,100,0.0,100,3.5,100,,-1,,-1,,-1,,-1,,-1,,-1,,-1,,-1,999.1,100,18.7,100,336,100,22.3,100,5,100,-2.1,1,6,1,999.1,1,999.1,100,999.1,100,18.7,100,18.0,100,336,100,332,100,22.3,100,21.6,100
2023-10-14T00:40:00Z,44489,9302001,WEST CHEDABUCTO BAY,0,45.48687,-61.14100000000001,18,2023-10-14T00:40:00.000Z,110,2023-10-14T00:43:14.527Z,45.48702,100,-61.141169999999995,100,12.1,100,15.2,100,12.4,100,0.0,100,3.5,100,,-1,,-1,,-1,,-1,,-1,,-1,,-1,,-1,999.1,100,17.3,100,320,100,24.5,100,5,100,-2.0,1,6,1,999.1,1,999.1,100,999.0,100,17.3,100,16.6,100,320,100,315,100,24.5,100,24.1,100
2023-10-14T00:50:00Z,44489,9302001,WEST CHEDABUCTO BAY,0,45.48687,-61.14100000000001,18,2023-10-14T00:50:00.000Z,110,2023-10-14T00:53:13.738Z,45.48702,100,-61.14117,100,12.0,100,15.2,100,12.4,100,0.0,100,3.5,100,,-1,,-1,,-1,,-1,,-1,,-1,,-1,,-1,999.0,100,16.6,100,322,100,19.8,100,5,100,-1.8,1,6,1,999.0,1,999.0,100,999.0,100,16.6,100,15.5,100,322,100,317,100,19.8,100,19.4,100
2023-10-14T01:00:00Z,44489,9302001,WEST CHEDABUCTO BAY,0,45.48687,-61.14100000000001,18,2023-10-14T01:00:00.000Z,108,2023-10-14T01:03:11.368Z,45.48702,100,-61.14115,100,11.9,100,15.2,100,12.4,100,0.0,100,3.5,100,0.1,100,0.4,100,4.2,100,0.2,100,0.3,100,5.7,100,3.0,100,8.3,100,998.9,100,19.1,100,318,100,23.4,100,5,100,-1.7,1,6,1,998.9,1,998.9,100,998.9,100,19.1,100,18.4,100,318,100,313,100,23.4,100,22.3,100
2023-10-14T01:10:00Z,44489,9302001,WEST CHEDABUCTO BAY,0,45.48687,-61.14100000000001,18,2023-10-14T01:10:00.000Z,110,2023-10-14T01:16:29.891Z,45.48702,100,-61.14115,100,11.8,100,15.2,100,12.4,100,0.0,100,3.5,100,,-1,,-1,,-1,,-1,,-1,,-1,,-1,,-1,998.8,100,20.9,100,328,100,24.5,100,5,100,-1.6,1,6,1,998.8,1,998.8,100,998.8,100,20.9,100,19.8,100,328,100,323,100,24.5,100,24.5,100
2023-10-14T01:20:00Z,44489,9302001,WEST CHEDABUCTO BAY,0,45.48687,-61.14100000000001,18,2023-10-14T01:20:00.000Z,110,2023-10-14T01:23:28.029Z,45.48702,100,-61.141169999999995,100,11.9,100,15.2,100,12.4,100,0.0,100,3.5,100,,-1,,-1,,-1,,-1,,-1,,-1,,-1,,-1,998.7,100,20.2,100,328,100,24.8,100,5,100,-1.7,1,6,1,998.7,1,998.7,100,998.6,100,20.2,100,19.4,100,328,100,323,100,24.8,100,23.8,100
2023-10-14T01:30:00Z,44489,9302001,WEST CHEDABUCTO BAY,0,45.48687,-61.14100000000001,18,2023-10-14T01:30:00.000Z,110,2023-10-14T01:33:23.636Z,45.48703,100,-61.14118000000001,100,11.9,100,15.2,100,12.4,100,0.0,100,3.5,100,,-1,,-1,,-1,,-1,,-1,,-1,,-1,,-1,998.6,100,18.7,100,321,100,22.7,100,5,100,-1.7,1,6,1,998.6,1,998.6,100,998.5,100,18.7,100,18.0,100,321,100,316,100,22.7,100,22.3,100
2023-10-14T01:40:00Z,44489,9302001,WEST CHEDABUCTO BAY,0,45.48687,-61.14100000000001,18,2023-10-14T01:40:00.000Z,110,2023-10-14T01:43:28.868Z,45.48703,100,-61.14115,100,11.9,100,15.2,100,12.4,100,0.0,100,3.5,100,,-1,,-1,,-1,,-1,,-1,,-1,,-1,,-1,998.4,100,20.2,100,320,100,28.1,100,5,100,-1.6,1,8,1,998.4,1,998.4,100,998.4,100,20.2,100,19.1,100,320,100,315,100,28.1,100,27.0,100
2023-10-14T01:50:00Z,44489,9302001,WEST CHEDABUCTO BAY,0,45.48687,-61.14100000000001,18,2023-10-14T01:50:00.000Z,110,2023-10-14T01:53:26.309Z,45.48705,100,-61.14113,100,11.6,100,15.2,100,12.4,100,0.0,100,3.5,100,,-1,,-1,,-1,,-1,,-1,,-1,,-1,,-1,998.3,100,20.5,100,311,100,25.2,100,5,100,-1.6,1,8,1,998.3,1,998.3,100,998.2,100,20.5,100,19.4,100,311,100,306,100,25.2,100,24.5,100
2023-10-14T02:00:00Z,44489,9302001,WEST CHEDABUCTO BAY,0,45.48687,-61.14100000000001,18,2023-10-14T02:00:00.000Z,108,2023-10-14T02:03:27.597Z,45.48702,100,-61.14115,100,11.4,100,15.2,100,12.4,100,0.0,100,3.5,100,0.1,100,0.4,100,3.9,100,0.2,100,0.3,100,5.1,100,2.9,100,9.1,100,998.2,100,19.1,100,312,100,23.4,100,5,100,-1.5,1,8,1,998.2,1,998.2,100,998.1,100,19.1,100,18.4,100,312,100,307,100,23.4,100,22.3,100
2023-10-14T02:10:00Z,44489,9302001,WEST CHEDABUCTO BAY,0,45.48687,-61.14100000000001,18,2023-10-14T02:10:00.000Z,110,2023-10-14T02:16:42.286Z,45.48705,100,-61.14113,100,11.3,100,15.2,100,12.4,100,0.0,100,3.5,100,,-1,,-1,,-1,,-1,,-1,,-1,,-1,,-1,998.1,100,17.6,100,318,100,22.0,100,5,100,-1.7,1,8,1,998.1,1,998.1,100,998.0,100,17.6,100,16.9,100,318,100,313,100,22.0,100,21.2,100
2023-10-14T02:20:00Z,44489,9302001,WEST CHEDABUCTO BAY,0,45.48687,-61.14100000000001,18,2023-10-14T02:20:00.000Z,110,2023-10-14T02:23:44.112Z,45.48703,100,-61.141130000000004,100,11.1,100,15.2,100,12.4,100,0.0,100,3.5,100,,-1,,-1,,-1,,-1,,-1,,-1,,-1,,-1,997.8,100,22.0,100,313,100,27.4,100,5,100,-1.8,1,8,1,997.8,1,997.8,100,997.8,100,22.0,100,21.2,100,313,100,308,100,27.4,100,27.0,100
2023-10-14T02:30:00Z,44489,9302001,WEST CHEDABUCTO BAY,0,45.48687,-61.14100000000001,18,2023-10-14T02:30:00.000Z,110,2023-10-14T02:33:41.521Z,45.48702,100,-61.14113,100,11.1,100,15.1,100,12.4,100,0.0,100,3.5,100,,-1,,-1,,-1,,-1,,-1,,-1,,-1,,-1,997.7,100,20.9,100,313,100,24.5,100,5,100,-1.8,1,8,1,997.7,1,997.7,100,997.6,100,20.9,100,19.8,100,313,100,307,100,24.5,100,24.5,100
2023-10-14T02:40:00Z,44489,9302001,WEST CHEDABUCTO BAY,0,45.48687,-61.14100000000001,18,2023-10-14T02:40:00.000Z,110,2023-10-14T02:42:46.834Z,45.48702,100,-61.141119999999994,100,11.0,100,15.1,100,12.4,100,0.0,100,3.5,100,,-1,,-1,,-1,,-1,,-1,,-1,,-1,,-1,997.6,100,19.1,100,310,100,23.0,100,5,100,-1.9,1,8,1,997.6,1,997.6,100,997.5,100,19.1,100,18.4,100,310,100,305,100,23.0,100,22.3,100
2023-10-14T02:50:00Z,44489,9302001,WEST CHEDABUCTO BAY,0,45.48687,-61.14100000000001,18,2023-10-14T02:50:00.000Z,110,2023-10-14T02:52:44.380Z,45.48702,100,-61.14105,100,11.1,100,15.1,100,12.4,100,0.0,100,3.5,100,,-1,,-1,,-1,,-1,,-1,,-1,,-1,,-1,997.4,100,20.9,100,308,100,24.8,100,5,100,-1.9,1,8,1,997.4,1,997.4,100,997.3,100,20.9,100,19.8,100,308,100,303,100,24.8,100,24.5,100
2023-10-14T03:00:00Z,44489,9302001,WEST CHEDABUCTO BAY,0,45.48687,-61.14100000000001,18,2023-10-14T03:00:00.000Z,108,2023-10-14T03:02:49.469Z,45.48705,100,-61.141119999999994,100,11.0,100,15.1,100,12.4,100,0.0,100,3.5,100,0.2,100,0.4,100,3.9,100,0.3,100,0.3,100,4.0,100,2.9,100,8.0,100,997.3,100,21.6,100,312,100,25.6,100,5,100,-1.9,1,8,1,997.3,1,997.3,100,997.2,100,21.6,100,20.9,100,312,100,307,100,25.6,100,25.6,100
2023-10-14T03:10:00Z,44489,9302001,WEST CHEDABUCTO BAY,0,45.48687,-61.14100000000001,18,2023-10-14T03:10:00.000Z,110,2023-10-14T03:15:56.236Z,45.48702,100,-61.1411,100,10.9,100,15.1,100,12.4,100,0.0,100,3.5,100,,-1,,-1,,-1,,-1,,-1,,-1,,-1,,-1,997.1,100,23.0,100,305,100,27.0,100,5,100,-2.1,1,8,1,997.1,1,997.1,100,997.1,100,23.0,100,22.0,100,305,100,300,100,27.0,100,26.3,100
2023-10-14T03:20:00Z,44489,9302001,WEST CHEDABUCTO BAY,0,45.48687,-61.14100000000001,18,2023-10-14T03:20:00.000Z,110,2023-10-14T03:22:56.389Z,45.48705,100,-61.141130000000004,100,11.1,100,15.1,100,12.4,100,0.0,100,3.5,100,,-1,,-1,,-1,,-1,,-1,,-1,,-1,,-1,996.9,100,25.6,100,308,100,28.8,100,5,100,-2.3,1,8,1,996.9,1,996.9,100,996.8,100,25.6,100,24.5,100,308,100,303,100,28.8,100,28.4,100
2023-10-14T03:30:00Z,44489,9302001,WEST CHEDABUCTO BAY,0,45.48687,-61.14100000000001,18,2023-10-14T03:30:00.000Z,110,2023-10-14T03:32:59.594Z,45.48707,100,-61.14115,100,11.2,100,15.1,100,12.4,100,0.0,100,3.5,100,,-1,,-1,,-1,,-1,,-1,,-1,,-1,,-1,996.7,100,26.3,100,307,100,31.0,100,5,100,-2.4,1,8,1,996.7,1,996.7,100,996.6,100,26.3,100,25.2,100,307,100,302,100,31.0,100,30.6,100
2023-10-14T03:40:00Z,44489,9302001,WEST CHEDABUCTO BAY,0,45.48687,-61.14100000000001,18,2023-10-14T03:40:00.000Z,110,2023-10-14T03:43:01.708Z,45.48703,100,-61.141130000000004,100,11.1,100,15.1,100,12.3,100,0.0,100,3.5,100,,-1,,-1,,-1,,-1,,-1,,-1,,-1,,-1,996.6,100,25.6,100,306,100,30.6,100,5,100,-2.5,1,8,1,996.6,1,996.6,100,996.5,100,25.6,100,24.8,100,306,100,301,100,30.6,100,29.5,100
2023-10-14T03:50:00Z,44489,9302001,WEST CHEDABUCTO BAY,0,45.48687,-61.14100000000001,18,2023-10-14T03:50:00.000Z,110,2023-10-14T03:53:03.420Z,45.48703,100,-61.14113,100,11.2,100,15.1,100,12.3,100,0.0,100,3.5,100,,-1,,-1,,-1,,-1,,-1,,-1,,-1,,-1,996.5,100,23.8,100,307,100,27.7,100,5,100,-2.5,1,8,1,996.5,1,996.5,100,996.5,100,23.8,100,23.0,100,307,100,302,100,27.7,100,27.4,100
2023-10-14T04:00:00Z,44489,9302001,WEST CHEDABUCTO BAY,0,45.48687,-61.14100000000001,18,2023-10-14T04:00:00.000Z,108,2023-10-14T04:03:02.218Z,45.48705,100,-61.14115,100,11.2,100,15.1,100,12.3,100,0.0,100,3.5,100,0.2,100,0.5,100,3.0,100,0.3,100,0.4,100,3.0,100,2.6,100,2.2,100,996.5,100,25.2,100,308,100,29.5,100,5,100,-2.5,1,8,1,996.5,1,996.5,100,996.4,100,25.2,100,24.5,100,308,100,303,100,29.5,100,29.5,100
2023-10-14T04:10:00Z,44489,9302001,WEST CHEDABUCTO BAY,0,45.48687,-61.14100000000001,18,2023-10-14T04:10:00.000Z,110,2023-10-14T04:16:23.804Z,45.48703,100,-61.1411,100,11.2,100,15.1,100,12.4,100,0.0,100,3.5,100,,-1,,-1,,-1,,-1,,-1,,-1,,-1,,-1,996.4,100,24.5,100,305,100,30.6,100,5,100,-2.4,1,6,1,996.4,1,996.4,100,996.4,100,24.5,100,23.4,100,305,100,300,100,30.6,100,30.2,100
2023-10-14T04:20:00Z,44489,9302001,WEST CHEDABUCTO BAY,0,45.48687,-61.14100000000001,18,2023-10-14T04:20:00.000Z,110,2023-10-14T04:23:16.158Z,45.48705,100,-61.141130000000004,100,10.9,100,15.1,100,12.3,100,0.0,100,3.5,100,,-1,,-1,,-1,,-1,,-1,,-1,,-1,,-1,996.3,100,23.0,100,307,100,29.5,100,5,100,-2.4,1,6,1,996.3,1,996.3,100,996.3,100,23.0,100,22.3,100,307,100,302,100,29.5,100,29.5,100
2023-10-14T04:30:00Z,44489,9302001,WEST CHEDABUCTO BAY,0,45.48687,-61.14100000000001,18,2023-10-14T04:30:00.000Z,110,2023-10-14T04:33:16.830Z,45.48705,100,-61.14113,100,10.9,100,15.1,100,12.3,100,0.0,100,3.5,100,,-1,,-1,,-1,,-1,,-1,,-1,,-1,,-1,996.3,100,22.3,100,315,100,26.3,100,5,100,-2.3,1,6,1,996.3,1,996.3,100,996.2,100,22.3,100,21.6,100,315,100,310,100,26.3,100,25.9,100
2023-10-14T04:40:00Z,44489,9302001,WEST CHEDABUCTO BAY,0,45.48687,-61.14100000000001,18,2023-10-14T04:40:00.000Z,110,2023-10-14T04:43:21.669Z,45.48705,100,-61.141130000000004,100,10.8,100,15.1,100,12.3,100,0.0,100,3.5,100,,-1,,-1,,-1,,-1,,-1,,-1,,-1,,-1,996.2,100,20.9,100,313,100,25.6,100,5,100,-2.2,1,6,1,996.2,1,996.2,100,996.2,100,20.9,100,20.5,100,313,100,308,100,25.6,100,24.5,100
2023-10-14T04:50:00Z,44489,9302001,WEST CHEDABUCTO BAY,0,45.48687,-61.14100000000001,18,2023-10-14T04:50:00.000Z,110,2023-10-14T04:54:18.422Z,45.48707,100,-61.14113,100,10.9,100,15.1,100,12.3,100,0.0,100,3.5,100,,-1,,-1,,-1,,-1,,-1,,-1,,-1,,-1,996.1,100,24.1,100,319,100,31.0,100,5,100,-2.1,1,6,1,996.1,1,996.1,100,996.1,100,24.1,100,23.4,100,319,100,314,100,31.0,100,29.9,100
2023-10-14T05:00:00Z,44489,9302001,WEST CHEDABUCTO BAY,0,45.48687,-61.14100000000001,18,2023-10-14T05:00:00.000Z,108,2023-10-14T05:03:23.529Z,45.48708,100,-61.141130000000004,100,11.1,100,15.1,100,12.3,100,0.0,100,3.5,100,0.2,100,0.6,100,2.8,100,0.3,100,0.4,100,2.8,100,2.5,100,2.2,100,996.1,100,22.3,100,315,100,27.4,100,5,100,-2.1,1,6,1,996.1,1,996.1,100,996.0,100,22.3,100,21.6,100,315,100,310,100,27.4,100,27.0,100
2023-10-14T05:10:00Z,44489,9302001,WEST CHEDABUCTO BAY,0,45.48687,-61.14100000000001,18,2023-10-14T05:10:00.000Z,110,2023-10-14T05:16:35.739Z,45.48705,100,-61.14113,100,11.2,100,15.1,100,12.3,100,0.0,100,3.5,100,,-1,,-1,,-1,,-1,,-1,,-1,,-1,,-1,996.1,100,22.3,100,314,100,28.4,100,5,100,-2.0,1,6,1,996.1,1,996.1,100,996.0,100,22.3,100,21.6,100,314,100,309,100,28.4,100,28.1,100
2023-10-14T05:20:00Z,44489,9302001,WEST CHEDABUCTO BAY,0,45.48687,-61.14100000000001,18,2023-10-14T05:20:00.000Z,110,2023-10-14T05:23:37.877Z,45.48707,100,-61.141169999999995,100,11.2,100,15.1,100,12.3,100,0.0,100,3.5,100,,-1,,-1,,-1,,-1,,-1,,-1,,-1,,-1,996.1,100,19.8,100,311,100,24.8,100,5,100,-1.7,1,6,1,996.1,1,996.1,100,996.1,100,19.8,100,19.1,100,311,100,306,100,24.8,100,24.1,100
2023-10-14T05:30:00Z,44489,9302001,WEST CHEDABUCTO BAY,0,45.48687,-61.14100000000001,18,2023-10-14T05:30:00.000Z,110,2023-10-14T05:33:36.390Z,45.48707,100,-61.14115,100,11.1,100,15.1,100,12.3,100,0.0,100,3.5,100,,-1,,-1,,-1,,-1,,-1,,-1,,-1,,-1,996.0,100,14.4,100,305,100,20.5,100,5,100,-1.6,1,6,1,996.0,1,996.0,100,996.0,100,14.4,100,13.7,100,305,100,300,100,20.5,100,20.2,100
2023-10-14T05:40:00Z,44489,9302001,WEST CHEDABUCTO BAY,0,45.48687,-61.14100000000001,18,2023-10-14T05:40:00.000Z,110,2023-10-14T05:43:36.223Z,45.48703,100,-61.14115,100,11.0,100,15.1,100,12.3,100,0.0,100,3.5,100,,-1,,-1,,-1,,-1,,-1,,-1,,-1,,-1,995.8,100,13.0,100,301,100,18.7,100,5,100,-1.8,1,6,1,995.8,1,995.8,100,995.8,100,13.0,100,12.2,100,301,100,296,100,18.7,100,18.7,100
2023-10-14T05:50:00Z,44489,9302001,WEST CHEDABUCTO BAY,0,45.48687,-61.14100000000001,18,2023-10-14T05:50:00.000Z,110,2023-10-14T05:53:38.011Z,45.48705,100,-61.14113,100,10.9,100,15.1,100,12.3,100,0.0,100,3.5,100,,-1,,-1,,-1,,-1,,-1,,-1,,-1,,-1,995.6,100,14.0,100,314,100,20.5,100,5,100,-1.8,1,6,1,995.6,1,995.6,100,995.6,100,14.0,100,13.7,100,314,100,309,100,20.5,100,20.9,100
2023-10-14T06:00:00Z,44489,9302001,WEST CHEDABUCTO BAY,0,45.48687,-61.14100000000001,18,2023-10-14T06:00:00.000Z,108,2023-10-14T06:03:35.553Z,45.48703,100,-61.14115,100,10.9,100,15.0,100,12.3,100,0.0,100,3.5,100,0.2,100,0.5,100,3.1,100,0.3,100,0.4,100,3.4,100,2.8,100,2.6,100,995.5,100,12.2,100,315,100,16.6,100,5,100,-1.8,1,6,1,995.5,1,995.5,100,995.4,100,12.2,100,11.5,100,315,100,310,100,16.6,100,16.9,100
2023-10-14T06:10:00Z,44489,9302001,WEST CHEDABUCTO BAY,0,45.48687,-61.14100000000001,18,2023-10-14T06:10:00.000Z,110,2023-10-14T06:15:39.796Z,45.48702,100,-61.14115,100,10.9,100,15.1,100,12.3,100,0.0,100,3.5,100,,-1,,-1,,-1,,-1,,-1,,-1,,-1,,-1,995.4,100,8.6,100,307,100,12.2,100,5,100,-1.8,1,7,1,995.4,1,995.4,100,995.3,100,8.6,100,8.3,100,307,100,302,100,12.2,100,11.9,100
2023-10-14T06:20:00Z,44489,9302001,WEST CHEDABUCTO BAY,0,45.48687,-61.14100000000001,18,2023-10-14T06:20:00.000Z,110,2023-10-14T06:22:42.295Z,45.48705,100,-61.14115,100,11.0,100,15.0,100,12.3,100,0.0,100,3.5,100,,-1,,-1,,-1,,-1,,-1,,-1,,-1,,-1,995.1,100,13.3,100,288,100,16.9,100,5,100,-1.8,1,8,1,995.1,1,995.1,100,995.0,100,13.3,100,12.6,100,288,100,283,100,16.9,100,16.9,100
2023-10-14T06:30:00Z,44489,9302001,WEST CHEDABUCTO BAY,0,45.48687,-61.14100000000001,18,2023-10-14T06:30:00.000Z,110,2023-10-14T06:32:41.328Z,45.48703,100,-61.14113,100,11.0,100,15.0,100,12.3,100,0.0,100,3.5,100,,-1,,-1,,-1,,-1,,-1,,-1,,-1,,-1,994.9,100,18.0,100,298,100,22.7,100,5,100,-1.8,1,8,1,994.9,1,994.9,100,994.8,100,18.0,100,17.3,100,298,100,293,100,22.7,100,22.3,100
2023-10-14T06:40:00Z,44489,9302001,WEST CHEDABUCTO BAY,0,45.48687,-61.14100000000001,18,2023-10-14T06:40:00.000Z,110,2023-10-14T06:42:52.819Z,45.48705,100,-61.14115,100,11.1,100,15.0,100,12.3,100,0.0,100,3.5,100,,-1,,-1,,-1,,-1,,-1,,-1,,-1,,-1,994.7,100,19.1,100,297,100,24.1,100,5,100,-1.9,1,8,1,994.7,1,994.7,100,994.6,100,19.1,100,18.7,100,297,100,292,100,24.1,100,23.0,100
2023-10-14T06:50:00Z,44489,9302001,WEST CHEDABUCTO BAY,0,45.48687,-61.14100000000001,18,2023-10-14T06:50:00.000Z,110,2023-10-14T06:52:54.263Z,45.48703,100,-61.14115,100,11.2,100,15.0,100,12.3,100,0.0,100,3.5,100,,-1,,-1,,-1,,-1,,-1,,-1,,-1,,-1,994.6,100,21.2,100,304,100,25.6,100,5,100,-1.9,1,8,1,994.6,1,994.6,100,994.5,100,21.2,100,20.9,100,304,100,299,100,25.6,100,25.6,100
2023-10-14T07:00:00Z,44489,9302001,WEST CHEDABUCTO BAY,0,45.48687,-61.14100000000001,18,2023-10-14T07:00:00.000Z,108,2023-10-14T07:02:59.482Z,45.48705,100,-61.14115,100,11.2,100,15.0,100,12.3,100,0.0,100,3.5,100,0.2,100,0.5,100,2.9,100,0.3,100,0.4,100,3.0,100,2.6,100,8.0,100,994.3,100,25.9,100,305,100,32.0,100,5,100,-2.2,1,8,1,994.3,1,994.3,100,994.3,100,25.9,100,25.2,100,305,100,300,100,32.0,100,31.7,100
2023-10-14T07:10:00Z,44489,9302001,WEST CHEDABUCTO BAY,0,45.48687,-61.14100000000001,18,2023-10-14T07:10:00.000Z,110,2023-10-14T07:15:44.846Z,45.48705,100,-61.14115,100,11.0,100,15.0,100,12.3,100,0.0,100,3.5,100,,-1,,-1,,-1,,-1,,-1,,-1,,-1,,-1,994.3,100,27.0,100,303,100,31.7,100,5,100,-2.1,1,8,1,994.3,1,994.3,100,994.2,100,27.0,100,26.3,100,303,100,298,100,31.7,100,31.7,100
2023-10-14T07:20:00Z,44489,9302001,WEST CHEDABUCTO BAY,0,45.48687,-61.14100000000001,18,2023-10-14T07:20:00.000Z,110,2023-10-14T07:22:56.192Z,45.48707,100,-61.141130000000004,100,10.8,100,15.0,100,12.3,100,0.0,100,3.5,100,,-1,,-1,,-1,,-1,,-1,,-1,,-1,,-1,994.3,100,26.3,100,300,100,30.6,100,5,100,-2.1,1,8,1,994.3,1,994.3,100,994.2,100,26.3,100,25.6,100,300,100,295,100,30.6,100,30.2,100
2023-10-14T07:30:00Z,44489,9302001,WEST CHEDABUCTO BAY,0,45.48687,-61.14100000000001,18,2023-10-14T07:30:00.000Z,110,2023-10-14T07:32:59.313Z,45.48708,100,-61.14118000000001,100,10.8,100,15.0,100,12.3,100,0.0,100,3.5,100,,-1,,-1,,-1,,-1,,-1,,-1,,-1,,-1,994.2,100,25.9,100,298,100,30.2,100,5,100,-2.1,1,8,1,994.2,1,994.2,100,994.1,100,25.9,100,25.2,100,298,100,293,100,30.2,100,29.9,100
2023-10-14T07:40:00Z,44489,9302001,WEST CHEDABUCTO BAY,0,45.48687,-61.14100000000001,18,2023-10-14T07:40:00.000Z,110,2023-10-14T07:43:06.288Z,45.48707,100,-61.141130000000004,100,10.7,100,15.0,100,12.3,100,0.0,100,3.5,100,,-1,,-1,,-1,,-1,,-1,,-1,,-1,,-1,994.1,100,25.2,100,297,100,28.8,100,5,100,-2.2,1,8,1,994.1,1,994.1,100,994.0,100,25.2,100,24.5,100,297,100,292,100,28.8,100,28.8,100
2023-10-14T07:50:00Z,44489,9302001,WEST CHEDABUCTO BAY,0,45.48687,-61.14100000000001,18,2023-10-14T07:50:00.000Z,110,2023-10-14T07:53:09.041Z,45.48705,100,-61.14113,100,10.8,100,15.0,100,12.3,100,0.0,100,3.5,100,,-1,,-1,,-1,,-1,,-1,,-1,,-1,,-1,994.0,100,23.0,100,301,100,28.4,100,5,100,-2.1,1,7,1,994.0,1,994.0,100,994.0,100,23.0,100,22.3,100,301,100,296,100,28.4,100,28.1,100
2023-10-14T08:00:00Z,44489,9302001,WEST CHEDABUCTO BAY,0,45.48687,-61.14100000000001,18,2023-10-14T08:00:00.000Z,108,2023-10-14T08:03:12.690Z,45.48707,100,-61.141130000000004,100,10.6,100,15.0,100,12.3,100,0.0,100,3.5,100,0.3,100,0.6,100,2.9,100,0.4,100,0.5,100,3.0,100,2.7,100,2.7,100,994.1,100,23.4,100,314,100,27.4,100,5,100,-2.0,1,6,1,994.1,1,994.1,100,994.0,100,23.4,100,22.7,100,314,100,309,100,27.4,100,27.0,100
2023-10-14T08:10:00Z,44489,9302001,WEST CHEDABUCTO BAY,0,45.48687,-61.14100000000001,18,2023-10-14T08:10:00.000Z,110,2023-10-14T08:16:00.467Z,45.48705,100,-61.14113,100,10.6,100,15.0,100,12.3,100,0.0,100,3.5,100,,-1,,-1,,-1,,-1,,-1,,-1,,-1,,-1,994.0,100,20.9,100,312,100,25.6,100,5,100,-2.1,1,6,1,994.0,1,994.0,100,994.0,100,20.9,100,20.5,100,312,100,308,100,25.6,100,25.6,100
2023-10-14T08:20:00Z,44489,9302001,WEST CHEDABUCTO BAY,0,45.48687,-61.14100000000001,18,2023-10-14T08:20:00.000Z,110,2023-10-14T08:23:06.356Z,45.48708,100,-61.14115,100,10.6,100,15.0,100,12.3,100,0.0,100,3.5,100,,-1,,-1,,-1,,-1,,-1,,-1,,-1,,-1,993.7,100,28.1,100,295,100,33.5,100,5,100,-2.4,1,6,1,993.7,1,993.7,100,993.7,100,28.1,100,27.4,100,295,100,290,100,33.5,100,32.0,100
2023-10-14T08:30:00Z,44489,9302001,WEST CHEDABUCTO BAY,0,45.48687,-61.14100000000001,18,2023-10-14T08:30:00.000Z,110,2023-10-14T08:33:11.850Z,45.48708,100,-61.14117,100,10.7,100,15.0,100,12.3,100,0.0,100,3.5,100,,-1,,-1,,-1,,-1,,-1,,-1,,-1,,-1,993.6,100,31.0,100,300,100,37.8,100,5,100,-2.5,1,6,1,993.6,1,993.6,100,993.5,100,31.0,100,30.2,100,300,100,295,100,37.8,100,37.1,100
2023-10-14T08:40:00Z,44489,9302001,WEST CHEDABUCTO BAY,0,45.48687,-61.14100000000001,18,2023-10-14T08:40:00.000Z,110,2023-10-14T08:43:26.929Z,45.48708,100,-61.141130000000004,100,10.5,100,15.0,100,12.3,100,0.0,100,3.5,100,,-1,,-1,,-1,,-1,,-1,,-1,,-1,,-1,993.5,100,32.0,100,295,100,39.2,100,5,100,-2.3,1,6,1,993.5,1,993.5,100,993.4,100,32.0,100,31.3,100,295,100,290,100,39.2,100,37.8,100
2023-10-14T08:50:00Z,44489,9302001,WEST CHEDABUCTO BAY,0,45.48687,-61.14100000000001,18,2023-10-14T08:50:00.000Z,110,2023-10-14T08:53:23.055Z,45.4871,100,-61.14113,100,10.5,100,15.0,100,12.3,100,0.0,100,3.5,100,,-1,,-1,,-1,,-1,,-1,,-1,,-1,,-1,993.4,100,32.0,100,286,100,37.8,100,5,100,-2.2,1,6,1,993.4,1,993.4,100,993.4,100,32.0,100,31.0,100,286,100,281,100,37.8,100,37.1,100
2023-10-14T09:00:00Z,44489,9302001,WEST CHEDABUCTO BAY,0,45.48687,-61.14100000000001,18,2023-10-14T09:00:00.000Z,108,2023-10-14T09:03:26.803Z,45.48708,100,-61.141130000000004,100,10.5,100,15.0,100,12.3,100,0.0,100,3.5,100,0.4,100,0.9,100,3.0,100,0.6,100,0.7,100,3.0,100,2.9,100,3.1,100,993.3,100,33.8,100,285,100,39.6,100,5,100,-2.1,1,6,1,993.3,1,993.3,100,993.3,100,33.8,100,33.1,100,285,100,280,100,39.6,100,38.9,100
2023-10-14T09:10:00Z,44489,9302001,WEST CHEDABUCTO BAY,0,45.48687,-61.14100000000001,18,2023-10-14T09:10:00.000Z,110,2023-10-14T09:16:19.193Z,45.48708,100,-61.14115,100,10.3,100,15.0,100,12.3,100,0.0,100,3.5,100,,-1,,-1,,-1,,-1,,-1,,-1,,-1,,-1,993.3,100,31.3,100,291,100,37.1,100,5,100,-2.0,1,6,1,993.3,1,993.3,100,993.3,100,31.3,100,30.6,100,291,100,286,100,37.1,100,35.6,100
2023-10-14T09:20:00Z,44489,9302001,WEST CHEDABUCTO BAY,0,45.48687,-61.14100000000001,18,2023-10-14T09:20:00.000Z,110,2023-10-14T09:23:30.463Z,45.48708,100,-61.14115,100,10.3,100,15.0,100,12.3,100,0.0,100,3.5,100,,-1,,-1,,-1,,-1,,-1,,-1,,-1,,-1,993.3,100,29.2,100,289,100,33.8,100,5,100,-1.8,1,6,1,993.3,1,993.3,100,993.3,100,29.2,100,28.4,100,289,100,285,100,33.8,100,32.8,100